This is the latest recevied weather packets stored in our database for station/object K7LER. If no packets are shown the sender has not sent any weather packets the latest 10 day(s).
| Time | Temp. | Humidity | Pressure | Rain* | Wind** | Luminosity | Snow |
|---|---|---|---|---|---|---|---|
| 1777063832 | 15.56° C | 31% | 1017.9 hPa | 0 mm | - | 807 W/m² | - |
| 1777063543 | 15° C | 33% | 1017.9 hPa | 0 mm | - | 849 W/m² | - |
| 1777063233 | 15.56° C | 34% | 1018 hPa | 0 mm | - | 870 W/m² | - |
| 1777062933 | 15° C | 37% | 1018.1 hPa | 0 mm | - | 881 W/m² | - |
| 1777062676 | 15° C | 36% | 1018.2 hPa | 0 mm | - | 870 W/m² | - |
| 1777062335 | 15° C | 37% | 1018.3 hPa | 0 mm | - | 870 W/m² | - |
| 1777062033 | 14.44° C | 38% | 1018.4 hPa | 0 mm | - | 872 W/m² | - |
| 1777061743 | 14.44° C | 43% | 1018.4 hPa | 0 mm | - | 870 W/m² | - |
| 1777061435 | 14.44° C | 47% | 1018.6 hPa | 0 mm | - | 868 W/m² | - |
| 1777061135 | 14.44° C | 52% | 1018.8 hPa | 0 mm | - | 865 W/m² | - |
| 1777060844 | 13.89° C | 51% | 1018.9 hPa | 0 mm | - | 865 W/m² | - |
| 1777060533 | 13.89° C | 52% | 1019.1 hPa | 0 mm | - | 865 W/m² | - |
| 1777060233 | 13.89° C | 55% | 1019.1 hPa | 0 mm | - | 863 W/m² | - |
| 1777059971 | 13.89° C | 56% | 1019.2 hPa | 0 mm | - | 858 W/m² | - |
| 1777059638 | 13.33° C | 57% | 1019.2 hPa | 0 mm | - | 853 W/m² | - |
| 1777059337 | 13.33° C | 64% | 1019.3 hPa | 0 mm | - | 847 W/m² | - |
| 1777059058 | 13.33° C | 64% | 1019.3 hPa | 0 mm | - | 844 W/m² | - |
| 1777058739 | 12.78° C | 66% | 1019.5 hPa | 0 mm | - | 835 W/m² | - |
| 1777058438 | 12.78° C | 67% | 1019.5 hPa | 0 mm | - | 830 W/m² | - |
| 1777058145 | 12.78° C | 67% | 1019.6 hPa | 0 mm | - | 663 W/m² | - |
| 1777057837 | 12.78° C | 67% | 1019.7 hPa | 0 mm | - | 823 W/m² | - |
| 1777057538 | 12.78° C | 67% | 1019.6 hPa | 0 mm | - | 821 W/m² | - |
| 1777057250 | 12.78° C | 69% | 1019.6 hPa | 0 mm | - | 816 W/m² | - |
| 1777056934 | 12.22° C | 70% | 1019.5 hPa | 0 mm | - | 814 W/m² | - |
| 1777056638 | 12.22° C | 69% | 1019.6 hPa | 0 mm | - | 809 W/m² | - |
* Rain latest hour (hover to see other rain measurements)
** Current wind speed in m/s (hover to see current wind gust speed)